Ironwood, MI

11:18 AM CDT on May 26, 2018 (GMT -0500)
Gogebic-Iron County

Weather History for KIWD - October, 2014

Change the Weather History Date:

Monday, October 13, 2014

  Actual Average Record
Temperature  
Mean Temperature 48 °F -  
Max Temperature 51 °F 52 °F 73 °F (2000)
Min Temperature 46 °F 35 °F 26 °F (2007)
Degree Days  
Heating Degree Days 16    
Moisture  
Dew Point 46 °F    
Average Humidity 90    
Maximum Humidity 100    
Minimum Humidity 58    
Precipitation  
Precipitation 0.00 in - - ()
Sea Level Pressure  
Sea Level Pressure 29.81 in    
Wind  
Wind Speed 5 mph (SE)    
Max Wind Speed 8 mph    
Max Gust Speed -    
Visibility 7 miles    
Events      
Averages and records for this station are not official NWS values.
T = Trace of Precipitation, MM = Missing Value Source: NWS Daily Summary

Daily Weather History Graph

Daily Weather History Graph

Search for Another Location

Airport or City:

Astronomy

Oct. 13, 2014 Rise Set
Actual Time 7:15 AM CDT 6:17 PM CDT
Civil Twilight 6:44 AM CDT 6:47 PM CDT
Nautical Twilight 6:09 AM CDT 7:22 PM CDT
Astronomical Twilight 5:34 AM CDT 7:57 PM CDT
Moon 10:16 PM CDT (10/13) 12:41 PM CDT (10/13)
Length of Visible Light 12h 02m
Length of Day
11h 02m
Waning Gibbous, 70% of the Moon is Illuminated
Oct 13
Waning Gibbous
Oct 15
Last Quarter
Oct 23
New
Oct 30
First Quarter
Nov 6
Full

Hourly Weather History & Observations

Time (CDT) Temp. Windchill Dew Point Humidity Pressure Visibility Wind Dir Wind Speed Gust Speed Precip Events Conditions
12:15 AM 51.8 °F - 37.4 °F 58% 29.82 in 10.0 mi SSE 8.1 mph - N/A   Overcast
12:35 AM 51.8 °F - 37.4 °F 58% 29.82 in 10.0 mi South 8.1 mph - N/A   Overcast
12:55 AM 51.8 °F - 39.2 °F 62% 29.82 in 10.0 mi South 6.9 mph - N/A   Overcast
1:15 AM 51.8 °F - 39.2 °F 62% 29.81 in 10.0 mi South 8.1 mph - N/A   Overcast
1:35 AM 51.8 °F - 39.2 °F 62% 29.81 in 10.0 mi South 6.9 mph - N/A   Overcast
1:55 AM 51.8 °F - 39.2 °F 62% 29.81 in 10.0 mi South 4.6 mph - N/A   Overcast
2:15 AM 51.8 °F - 42.8 °F 71% 29.81 in 10.0 mi SSW 3.5 mph - N/A   Overcast
2:35 AM 51.8 °F - 41.0 °F 67% 29.81 in 10.0 mi South 4.6 mph - N/A   Overcast
2:55 AM 51.8 °F - 41.0 °F 67% 29.81 in 10.0 mi Calm Calm - N/A   Overcast
3:15 AM 51.8 °F - 41.0 °F 67% 29.80 in 10.0 mi South 4.6 mph - N/A   Overcast
3:35 AM 50.0 °F - 42.8 °F 76% 29.81 in 10.0 mi South 4.6 mph - N/A   Overcast
3:55 AM 48.2 °F - 42.8 °F 82% 29.81 in 10.0 mi South 4.6 mph - N/A   Overcast
4:15 AM 48.2 °F - 44.6 °F 87% 29.80 in 10.0 mi South 5.8 mph - N/A   Overcast
4:35 AM 48.2 °F - 44.6 °F 87% 29.79 in 9.0 mi SSE 3.5 mph - N/A   Overcast
4:55 AM 48.2 °F - 44.6 °F 87% 29.80 in 10.0 mi Calm Calm - N/A   Overcast
5:15 AM 48.2 °F - 44.6 °F 87% 29.80 in 10.0 mi South 5.8 mph - N/A   Overcast
5:35 AM 48.2 °F - 44.6 °F 87% 29.80 in 10.0 mi SSW 4.6 mph - N/A   Overcast
5:55 AM 48.2 °F - 46.4 °F 93% 29.79 in 10.0 mi Calm Calm - N/A   Overcast
6:15 AM 48.2 °F - 46.4 °F 93% 29.80 in 10.0 mi South 3.5 mph - N/A   Overcast
6:35 AM 48.2 °F - 46.4 °F 93% 29.80 in 10.0 mi South 3.5 mph - N/A   Overcast
6:55 AM 48.2 °F - 46.4 °F 93% 29.80 in 10.0 mi South 3.5 mph - N/A   Overcast
7:15 AM 48.2 °F - 46.4 °F 93% 29.79 in 10.0 mi Calm Calm - N/A   Overcast
7:35 AM 48.2 °F - 46.4 °F 93% 29.79 in 10.0 mi South 4.6 mph - N/A   Overcast
7:55 AM 48.2 °F - 46.4 °F 93% 29.80 in 10.0 mi South 3.5 mph - N/A   Overcast
8:15 AM 48.2 °F - 46.4 °F 93% 29.81 in 5.0 mi South 3.5 mph - N/A   Overcast
8:35 AM 48.2 °F - 46.4 °F 93% 29.81 in 5.0 mi Calm Calm - N/A   Overcast
8:55 AM 48.2 °F - 46.4 °F 93% 29.81 in 8.0 mi Calm Calm - N/A   Overcast
9:15 AM 48.2 °F - 46.4 °F 93% 29.81 in 7.0 mi Calm Calm - N/A   Overcast
9:35 AM 48.2 °F - 48.2 °F 100% 29.81 in 8.0 mi Calm Calm - N/A   Overcast
9:55 AM 48.2 °F - 48.2 °F 100% 29.82 in 10.0 mi South 6.9 mph - N/A   Overcast
10:15 AM 48.2 °F - 48.2 °F 100% 29.82 in 1.5 mi South 5.8 mph - N/A   Overcast
10:35 AM 50.0 °F - 48.2 °F 94% 29.82 in 3.0 mi South 3.5 mph - N/A   Overcast
10:55 AM 50.0 °F - 48.2 °F 94% 29.82 in 9.0 mi South 4.6 mph - N/A   Overcast
11:15 AM 50.0 °F - 48.2 °F 94% 29.83 in 10.0 mi Calm Calm - N/A   Overcast
11:35 AM 50.0 °F - 48.2 °F 94% 29.83 in 10.0 mi South 4.6 mph - N/A   Overcast
11:55 AM 51.8 °F - 48.2 °F 88% 29.83 in 10.0 mi SSW 3.5 mph - N/A   Overcast
12:15 PM 51.8 °F - 48.2 °F 88% 29.81 in 9.0 mi SW 3.5 mph - N/A   Overcast
12:35 PM 51.8 °F - 48.2 °F 88% 29.81 in 8.0 mi SW 3.5 mph - N/A   Overcast
12:55 PM 51.8 °F - 48.2 °F 88% 29.80 in 10.0 mi Calm Calm - N/A   Overcast
1:15 PM 51.8 °F - 48.2 °F 88% 29.81 in 10.0 mi Calm Calm - N/A   Overcast
1:35 PM 51.8 °F - 48.2 °F 88% 29.80 in 8.0 mi Calm Calm - N/A   Overcast
1:55 PM 51.8 °F - 48.2 °F 88% 29.80 in 3.0 mi Calm Calm - N/A   Overcast
2:15 PM 51.8 °F - 48.2 °F 88% 29.80 in 2.0 mi Calm Calm - N/A   Overcast
2:35 PM 51.8 °F - 50.0 °F 94% 29.79 in 2.5 mi Calm Calm - N/A   Overcast
2:55 PM 51.8 °F - 48.2 °F 88% 29.79 in 7.0 mi Calm Calm - N/A   Overcast
3:15 PM 51.8 °F - 50.0 °F 94% 29.79 in 9.0 mi Calm Calm - N/A   Overcast
3:35 PM 51.8 °F - 50.0 °F 94% 29.80 in 3.0 mi Calm Calm - N/A   Overcast
3:55 PM 51.8 °F - 50.0 °F 94% 29.81 in 3.0 mi North 5.8 mph - N/A   Overcast
4:15 PM 50.0 °F - 48.2 °F 94% 29.81 in 2.5 mi North 4.6 mph - N/A   Overcast
4:35 PM 50.0 °F - 48.2 °F 94% 29.82 in 2.5 mi North 4.6 mph - N/A   Overcast
4:55 PM 48.2 °F - 48.2 °F 100% 29.82 in 1.8 mi NNE 4.6 mph - N/A   Overcast
5:15 PM 48.2 °F - 46.4 °F 93% 29.81 in 2.0 mi NNE 4.6 mph - N/A   Overcast
5:35 PM 48.2 °F - 48.2 °F 100% 29.81 in 2.5 mi NNE 4.6 mph - N/A   Overcast
5:55 PM 48.2 °F - 48.2 °F 100% 29.82 in 2.0 mi NNE 5.8 mph - N/A   Overcast
6:15 PM 48.2 °F - 48.2 °F 100% 29.82 in 0.8 mi North 5.8 mph - N/A   Overcast
6:35 PM 48.2 °F - 48.2 °F 100% 29.82 in 1.2 mi NNE 5.8 mph - N/A   Overcast
6:55 PM 48.2 °F - 48.2 °F 100% 29.81 in 0.8 mi NNE 6.9 mph - N/A   Overcast
7:15 PM 46.4 °F 45.2 °F 46.4 °F 100% 29.81 in 0.8 mi NNE 3.5 mph - N/A   Overcast
7:35 PM 48.2 °F - 48.2 °F 100% 29.81 in 1.2 mi NNE 5.8 mph - N/A   Overcast
7:55 PM 48.2 °F - 48.2 °F 100% 29.81 in 3.0 mi NNE 4.6 mph - N/A   Overcast
8:15 PM 48.2 °F - 48.2 °F 100% 29.80 in 7.0 mi NNE 4.6 mph - N/A   Overcast
8:35 PM 48.2 °F - 48.2 °F 100% 29.80 in 5.0 mi NNE 3.5 mph - N/A   Overcast
8:55 PM 48.2 °F - 48.2 °F 100% 29.80 in 5.0 mi NNE 3.5 mph - N/A   Overcast
9:15 PM 48.2 °F - 48.2 °F 100% 29.80 in 7.0 mi North 4.6 mph - N/A   Overcast
9:35 PM 46.4 °F 42.9 °F 46.4 °F 100% 29.80 in 0.5 mi North 6.9 mph - N/A   Overcast
9:55 PM 46.4 °F 45.2 °F 46.4 °F 100% 29.80 in 0.8 mi North 3.5 mph - N/A   Overcast
10:15 PM 46.4 °F 44.3 °F 46.4 °F 100% 29.80 in 2.5 mi North 4.6 mph - N/A   Overcast
10:35 PM 46.4 °F 42.9 °F 46.4 °F 100% 29.80 in 5.0 mi North 6.9 mph - N/A   Overcast
10:55 PM 46.4 °F 43.5 °F 44.6 °F 93% 29.80 in 6.0 mi NNE 5.8 mph - N/A   Overcast
11:15 PM 46.4 °F 42.4 °F 44.6 °F 93% 29.79 in 6.0 mi NNE 8.1 mph - N/A   Overcast
11:35 PM 46.4 °F 42.4 °F 46.4 °F 100% 29.77 in 5.0 mi NNE 8.1 mph - N/A   Overcast
11:55 PM 46.4 °F 42.4 °F 46.4 °F 100% 29.77 in 7.0 mi NNE 8.1 mph - N/A   Overcast